TimeHST,TemperatureF,Dew PointF,Humidity,Sea Level PressureIn,VisibilityMPH,Wind Direction,Wind SpeedMPH,Gust SpeedMPH,PrecipitationIn,Events,Conditions,WindDirDegrees,DateUTC
12:54 AM,73.0,68.0,84,30.08,10.0,NE,9.2,-,N/A,,Clear,40,2012-10-30 10:54:00
1:54 AM,73.9,69.1,85,30.07,10.0,NE,16.1,-,N/A,,Partly Cloudy,40,2012-10-30 11:54:00
2:54 AM,73.0,71.1,93,30.06,10.0,NNE,11.5,-,0.00,,Clear,30,2012-10-30 12:54:00
3:54 AM,73.0,70.0,90,30.06,10.0,NE,6.9,-,N/A,,Overcast,40,2012-10-30 13:54:00
4:54 AM,73.0,71.1,93,30.07,10.0,NE,8.1,-,N/A,,Clear,40,2012-10-30 14:54:00
5:54 AM,72.0,72.0,100,30.08,10.0,NE,12.7,-,0.00,Rain,Light Rain,40,2012-10-30 15:54:00
6:54 AM,72.0,72.0,100,30.09,10.0,NE,6.9,-,0.00,,Scattered Clouds,50,2012-10-30 16:54:00
7:54 AM,75.9,73.0,91,30.09,10.0,ENE,4.6,-,0.00,,Scattered Clouds,70,2012-10-30 17:54:00
8:54 AM,80.1,73.0,79,30.10,10.0,NE,15.0,-,N/A,,Partly Cloudy,40,2012-10-30 18:54:00
9:54 AM,82.0,70.0,67,30.09,10.0,NE,17.3,23.0,N/A,,Partly Cloudy,40,2012-10-30 19:54:00
10:54 AM,84.0,70.0,63,30.06,10.0,NE,21.9,-,N/A,,Partly Cloudy,50,2012-10-30 20:54:00
11:54 AM,84.9,71.1,63,30.04,10.0,NE,24.2,-,N/A,,Scattered Clouds,40,2012-10-30 21:54:00
12:54 PM,84.0,71.1,65,30.01,10.0,NE,25.3,29.9,N/A,,Partly Cloudy,40,2012-10-30 22:54:00
1:54 PM,84.0,71.1,65,30.00,10.0,NE,23.0,-,N/A,,Partly Cloudy,40,2012-10-30 23:54:00
2:54 PM,82.9,72.0,69,29.99,10.0,NE,21.9,27.6,N/A,,Partly Cloudy,50,2012-10-31 00:54:00
3:54 PM,81.0,70.0,69,30.00,10.0,ENE,21.9,31.1,N/A,,Scattered Clouds,60,2012-10-31 01:54:00
4:54 PM,79.0,69.1,72,30.01,10.0,NE,19.6,24.2,N/A,,Scattered Clouds,50,2012-10-31 02:54:00
5:54 PM,77.0,71.1,82,30.03,10.0,NE,12.7,23.0,N/A,,Scattered Clouds,50,2012-10-31 03:54:00
6:54 PM,75.0,69.1,82,30.06,10.0,ENE,13.8,-,N/A,,Partly Cloudy,70,2012-10-31 04:54:00
7:54 PM,73.9,70.0,87,30.08,10.0,ENE,12.7,-,N/A,,Partly Cloudy,70,2012-10-31 05:54:00
8:54 PM,73.9,70.0,87,30.10,10.0,ENE,13.8,21.9,N/A,,Partly Cloudy,60,2012-10-31 06:54:00
9:54 PM,73.9,71.1,91,30.11,10.0,NE,9.2,-,N/A,,Scattered Clouds,50,2012-10-31 07:54:00
10:54 PM,73.9,71.1,91,30.10,10.0,NE,10.4,-,N/A,,Mostly Cloudy,50,2012-10-31 08:54:00
11:54 PM,73.9,69.1,85,30.09,10.0,NE,11.5,-,N/A,,Clear,40,2012-10-31 09:54:00